{"data":{"norad_id":67093,"epoch":"2026-05-25T03:43:15.742848Z","epoch_age_seconds":61846,"freshness":"FRESH","line1":"1 67093U 25298U   26145.15504332  .00002244  00000+0  19577-3 0  9995","line2":"2 67093  70.0008 181.5626 0003818 267.1821  92.8901 14.98335106 24676","mean_motion":14.98335106,"eccentricity":0.0003818,"inclination_deg":70.0008,"raan_deg":181.5626,"arg_perigee_deg":267.1821,"mean_anomaly_deg":92.8901,"bstar":0.00019577,"rev_number":2467,"period_min":96.106671613953,"perigee_km":569.38652348825,"apogee_km":574.69367872265,"semimajor_km":6950.1771011055,"source":"CELESTRAK","updated_at":"2026-05-25T13:38:21.470278Z"}}